FW6455 Weather Reports


Display with metric or nautical units.
time (UTC)temp
F
wind
direction
speed
MPH
gust
MPH
rain 1hr
in
rain 24hr
in
rain mn
in
humidity
%
barometer
mb
20260508205040 72 0 0.0 1.0 0.00 0.00 0.00 74 1012.4
20260508204548 72 193 0.0 1.0 0.00 0.00 0.00 73 1012.4
20260508204038 72 193 0.0 1.0 0.00 0.00 0.00 72 1012.6
20260508203538 73 0 0.0 1.0 0.00 0.00 0.00 71 1012.7
20260508203102 73 0 0.0 1.0 0.00 0.00 0.00 72 1012.4
20260508202539 73 195 0.0 1.0 0.00 0.00 0.00 72 1012.2
20260508202038 73 0 0.0 1.0 0.00 0.00 0.00 71 1012.5
20260508201556 73 0 0.0 2.0 0.00 0.00 0.00 71 1012.6
20260508201039 74 215 0.0 2.0 0.00 0.00 0.00 71 1012.6
20260508200538 74 206 0.0 1.0 0.00 0.00 0.00 70 1012.5
20260508200100 74 207 0.0 1.0 0.00 0.00 0.00 71 1012.4
20260508195539 74 192 0.0 2.0 0.00 0.00 0.00 71 1012.4
20260508195039 74 0 0.0 2.0 0.00 0.00 0.00 69 1012.4
20260508194556 74 0 0.0 2.0 0.00 0.00 0.00 69 1012.4
20260508194042 74 0 0.0 2.0 0.00 0.00 0.00 71 1012.3
20260508193540 74 210 0.0 2.0 0.00 0.00 0.00 71 1012.3
20260508193058 73 207 0.0 2.0 0.00 0.00 0.00 71 1012.4
20260508192540 73 143 0.0 2.0 0.00 0.00 0.00 71 1012.5
20260508192038 73 0 0.0 1.0 0.00 0.00 0.00 71 1012.7
20260508191600 73 0 0.0 2.0 0.00 0.00 0.00 71 1012.6
20260508191038 74 187 0.0 2.0 0.00 0.00 0.00 71 1012.8
20260508190540 74 162 0.0 2.0 0.00 0.00 0.00 71 1012.8
20260508190054 74 195 1.0 2.0 0.00 0.00 0.00 71 1012.9
20260508185540 74 0 0.0 2.0 0.00 0.00 0.00 70 1012.9
20260508185040 74 197 0.0 2.0 0.00 0.00 0.00 71 1013.0
20260508184555 74 0 0.0 2.0 0.00 0.00 0.00 71 1013.1
20260508184040 74 215 0.0 2.0 0.00 0.00 0.00 71 1013.2
20260508183540 74 0 0.0 2.0 0.00 0.00 0.00 71 1013.1
20260508183053 74 191 0.0 2.0 0.00 0.00 0.00 69 1013.3
20260508182539 74 167 0.0 2.0 0.00 0.00 0.00 69 1013.3
20260508182041 74 212 0.0 2.0 0.00 0.00 0.00 71 1013.4
20260508181558 74 0 0.0 2.0 0.00 0.00 0.00 69 1013.4
20260508181040 74 183 0.0 2.0 0.00 0.00 0.00 69 1013.5
20260508180540 74 198 0.0 1.0 0.00 0.00 0.00 70 1013.4
20260508180054 74 0 0.0 2.0 0.00 0.00 0.00 69 1013.5
20260508175542 74 0 0.0 2.0 0.00 0.00 0.00 69 1013.6
20260508175038 75 0 0.0 2.0 0.00 0.00 0.00 69 1013.9
20260508174557 75 205 0.0 2.0 0.00 0.00 0.00 68 1013.8
20260508174041 75 175 0.0 3.0 0.00 0.00 0.00 67 1013.8
20260508173540 75 167 1.0 3.0 0.00 0.00 0.00 67 1013.9
20260508173052 75 140 1.0 3.0 0.00 0.00 0.00 67 1013.9
20260508172538 75 78 0.0 4.0 0.00 0.00 0.00 68 1014.0
20260508172040 75 147 0.0 4.0 0.00 0.00 0.00 68 1014.2
20260508171605 74 63 0.0 2.0 0.00 0.00 0.00 70 1014.2
20260508171037 73 184 0.0 3.0 0.00 0.00 0.00 70 1014.3
20260508170545 73 0 1.0 3.0 0.00 0.00 0.00 69 1014.4
20260508170058 73 191 1.0 3.0 0.00 0.00 0.00 70 1014.3
20260508165539 72 158 0.0 3.0 0.00 0.00 0.00 71 1014.3
20260508165038 72 0 1.0 3.0 0.00 0.00 0.00 71 1014.5
20260508164550 71 120 0.0 2.0 0.00 0.00 0.00 73 1014.6
20260508164039 71 127 1.0 2.0 0.00 0.00 0.00 71 1014.9
20260508163539 71 158 0.0 1.0 0.00 0.00 0.00 71 1015.1
20260508163051 71 0 0.0 1.0 0.00 0.00 0.00 73 1015.2
20260508162539 70 0 0.0 1.0 0.00 0.00 0.00 72 1015.3
20260508162038 71 0 0.0 1.0 0.00 0.00 0.00 73 1015.4
20260508161552 70 98 0.0 2.0 0.00 0.00 0.00 73 1015.3
20260508161038 70 0 0.0 2.0 0.00 0.00 0.00 73 1015.4
20260508160538 69 201 0.0 2.0 0.00 0.00 0.00 74 1015.4
20260508160056 69 0 0.0 1.0 0.00 0.00 0.00 75 1015.5
20260508155542 69 0 0.0 1.0 0.00 0.00 0.00 75 1015.5
20260508155039 69 185 0.0 1.0 0.00 0.00 0.00 75 1015.7
20260508154552 69 0 0.0 1.0 0.00 0.00 0.00 74 1015.6
20260508154039 69 0 0.0 1.0 0.00 0.00 0.00 74 1015.7
20260508153540 69 0 0.0 0.0 0.00 0.00 0.00 74 1015.7
20260508153051 69 0 0.0 0.0 0.00 0.00 0.00 74 1015.7
20260508152541 69 0 0.0 0.0 0.00 0.00 0.00 74 1015.8
20260508152038 69 0 0.0 1.0 0.00 0.00 0.00 75 1016.0
20260508151555 69 0 0.0 1.0 0.00 0.00 0.00 75 1015.9
20260508151039 68 0 0.0 1.0 0.00 0.00 0.00 74 1016.0
20260508150539 68 210 0.0 2.0 0.00 0.00 0.00 75 1015.9
20260508150050 68 0 0.0 2.0 0.00 0.00 0.00 74 1015.9
20260508145544 68 105 0.0 2.0 0.00 0.00 0.00 74 1015.9
20260508145039 68 0 0.0 2.0 0.00 0.00 0.00 74 1015.9
20260508144550 68 204 0.0 2.0 0.00 0.00 0.00 73 1016.0
20260508144039 68 203 0.0 4.0 0.00 0.00 0.00 73 1016.0
20260508143540 67 0 1.0 4.0 0.00 0.00 0.00 74 1016.0
20260508143103 67 0 1.0 4.0 0.00 0.00 0.00 73 1015.9
20260508142540 68 193 0.0 4.0 0.00 0.00 0.00 74 1016.1
20260508142040 67 0 1.0 4.0 0.00 0.00 0.00 74 1016.0
20260508141553 67 190 0.0 4.0 0.00 0.00 0.00 75 1015.9
20260508141039 67 56 1.0 3.0 0.00 0.00 0.00 75 1016.1
20260508140539 66 106 0.0 5.0 0.00 0.00 0.00 76 1016.2
20260508140059 66 0 1.0 5.0 0.00 0.00 0.00 75 1016.1
20260508135536 67 89 1.0 5.0 0.00 0.00 0.00 75 1016.2
20260508135039 67 77 0.0 4.0 0.00 0.00 0.00 74 1016.1
20260508134555 67 49 0.0 2.0 0.00 0.00 0.00 75 1016.1
20260508134038 67 117 0.0 2.0 0.00 0.00 0.00 76 1016.3
20260508133543 68 119 0.0 2.0 0.00 0.00 0.00 74 1016.3
20260508133048 68 109 0.0 1.0 0.00 0.00 0.00 73 1016.3
20260508132540 68 117 0.0 1.0 0.00 0.00 0.00 74 1016.3
20260508132036 68 104 0.0 1.0 0.00 0.00 0.00 75 1016.3
20260508131603 67 122 0.0 3.0 0.00 0.00 0.00 75 1016.4
20260508131039 67 0 0.0 3.0 0.00 0.00 0.00 76 1016.1
20260508130540 68 96 0.0 2.0 0.00 0.00 0.00 76 1016.0
20260508130111 67 0 0.0 1.0 0.00 0.00 0.00 81 1016.1
20260508125540 65 0 0.0 1.0 0.00 0.00 0.00 81 1016.0
20260508125040 64 0 0.0 1.0 0.00 0.00 0.00 84 1016.1
20260508124552 63 130 0.0 1.0 0.00 0.00 0.00 84 1016.0
20260508124040 62 0 0.0 0.0 0.00 0.00 0.00 89 1016.0
20260508123543 61 0 0.0 0.0 0.00 0.00 0.00 91 1015.8
20260508123054 60 0 0.0 0.0 0.00 0.00 0.00 91 1015.9
20260508122539 59 0 0.0 0.0 0.00 0.00 0.00 91 1016.1
20260508122039 59 0 0.0 0.0 0.00 0.00 0.00 92 1016.0
20260508121603 59 0 0.0 0.0 0.00 0.00 0.00 92 1015.7
20260508121039 58 0 0.0 0.0 0.00 0.00 0.00 93 1015.9
20260508120539 57 0 0.0 0.0 0.00 0.00 0.00 93 1015.9
20260508120059 57 0 0.0 0.0 0.00 0.00 0.00 93 1015.8
20260508115538 57 0 0.0 0.0 0.00 0.00 0.00 93 1015.7
20260508115040 57 0 0.0 0.0 0.00 0.00 0.00 93 1015.9
20260508114549 57 0 0.0 0.0 0.00 0.00 0.00 93 1015.9
20260508114044 57 0 0.0 0.0 0.00 0.00 0.00 93 1016.0
20260508113540 57 0 0.0 0.0 0.00 0.00 0.00 93 1016.2
20260508113049 57 0 0.0 0.0 0.00 0.00 0.00 93 1016.1
20260508112539 57 0 0.0 0.0 0.00 0.00 0.00 93 1016.0
20260508112039 57 0 0.0 0.0 0.00 0.00 0.00 93 1016.0
20260508111554 57 0 0.0 0.0 0.00 0.00 0.00 93 1016.0
20260508111040 57 0 0.0 0.0 0.00 0.00 0.00 93 1015.9
20260508110540 57 0 0.0 0.0 0.00 0.00 0.00 93 1016.0
20260508110055 57 0 0.0 0.0 0.00 0.00 0.00 93 1016.0
20260508105540 57 0 0.0 0.0 0.00 0.00 0.00 93 1015.7
20260508105041 57 0 0.0 0.0 0.00 0.00 0.00 93 1015.6
20260508104615 57 0 0.0 0.0 0.00 0.00 0.00 92 1015.5
20260508104038 57 0 0.0 0.0 0.00 0.00 0.00 92 1015.5
20260508103538 57 0 0.0 0.0 0.00 0.00 0.00 92 1015.4
20260508103051 57 0 0.0 0.0 0.00 0.00 0.00 92 1015.4
20260508102540 57 0 0.0 0.0 0.00 0.00 0.00 92 1015.4
20260508102040 57 0 0.0 0.0 0.00 0.00 0.00 92 1015.2
20260508101552 57 0 0.0 0.0 0.00 0.00 0.00 92 1015.2
20260508101039 57 0 0.0 0.0 0.00 0.00 0.00 91 1015.2
20260508100538 57 0 0.0 0.0 0.00 0.00 0.00 91 1015.2
20260508100052 57 0 0.0 0.0 0.00 0.00 0.00 92 1015.1
20260508095540 57 0 0.0 0.0 0.00 0.00 0.00 91 1015.2
20260508095039 58 0 0.0 0.0 0.00 0.00 0.00 91 1015.3
20260508094549 58 0 0.0 0.0 0.00 0.00 0.00 91 1015.3
20260508094039 58 0 0.0 0.0 0.00 0.00 0.00 91 1015.4
20260508093542 58 0 0.0 0.0 0.00 0.00 0.00 91 1015.3
20260508093047 58 0 0.0 0.0 0.00 0.00 0.00 90 1015.4
20260508092542 58 0 0.0 0.0 0.00 0.00 0.00 90 1015.7
20260508092040 58 0 0.0 0.0 0.00 0.00 0.00 90 1015.5
20260508091556 58 0 0.0 0.0 0.00 0.00 0.00 90 1015.5
20260508091039 58 0 0.0 0.0 0.00 0.00 0.00 90 1015.6
20260508090540 59 0 0.0 0.0 0.00 0.00 0.00 90 1015.5
20260508090105 59 0 0.0 0.0 0.00 0.00 0.00 89 1015.5
20260508085540 59 0 0.0 0.0 0.00 0.00 0.00 89 1015.6
20260508085038 59 0 0.0 0.0 0.00 0.00 0.00 89 1015.7
20260508084553 59 0 0.0 0.0 0.00 0.00 0.00 89 1015.7
20260508084040 59 0 0.0 0.0 0.00 0.00 0.00 90 1015.7
20260508083540 60 0 0.0 0.0 0.00 0.00 0.00 90 1015.9
20260508083103 60 0 0.0 0.0 0.00 0.00 0.00 90 1016.3
20260508082541 60 0 0.0 0.0 0.00 0.00 0.00 90 1016.2
20260508082039 60 0 0.0 0.0 0.00 0.00 0.00 90 1016.4
20260508081557 60 0 0.0 0.0 0.00 0.00 0.00 90 1016.6
20260508081041 59 0 0.0 0.0 0.00 0.00 0.00 90 1016.7
20260508080539 59 0 0.0 0.0 0.00 0.00 0.00 90 1016.7
20260508080107 59 0 0.0 0.0 0.00 0.00 0.00 90 1016.7
20260508075540 59 0 0.0 0.0 0.00 0.00 0.00 91 1016.6
20260508075039 59 0 0.0 0.0 0.00 0.00 0.00 91 1016.7
20260508074553 59 0 0.0 0.0 0.00 0.00 0.00 91 1016.6
20260508074040 59 0 0.0 0.0 0.00 0.00 0.00 91 1016.5
20260508073541 59 0 0.0 0.0 0.00 0.00 0.00 91 1016.3
20260508073057 59 0 0.0 0.0 0.00 0.00 0.00 91 1016.3
20260508072539 59 0 0.0 0.0 0.00 0.00 0.00 91 1016.2
20260508072039 59 0 0.0 0.0 0.00 0.00 0.00 91 1016.2
20260508071600 59 0 0.0 0.0 0.00 0.00 0.00 91 1016.2
20260508071039 59 0 0.0 0.0 0.00 0.00 0.00 91 1016.1
20260508070542 59 0 0.0 0.0 0.00 0.00 0.00 91 1016.2
20260508070140 59 0 0.0 0.0 0.00 0.00 0.00 91 1016.2
20260508065540 59 0 0.0 0.0 0.00 0.00 0.00 91 1016.3
20260508065043 59 0 0.0 0.0 0.00 0.00 0.00 91 1016.5
20260508064608 59 0 0.0 0.0 0.00 0.00 0.00 91 1016.7
20260508064043 59 0 0.0 0.0 0.00 0.00 0.00 91 1016.8
20260508063540 59 0 0.0 0.0 0.00 0.00 0.00 91 1016.8
20260508063051 58 0 0.0 0.0 0.00 0.00 0.00 91 1017.0
20260508062539 58 0 0.0 0.0 0.00 0.00 0.00 91 1017.0
20260508062038 58 0 0.0 0.0 0.00 0.00 0.00 91 1017.1
20260508061555 58 0 0.0 0.0 0.00 0.00 0.00 90 1017.0
20260508061039 58 0 0.0 0.0 0.00 0.00 0.00 90 1017.0
20260508060539 58 0 0.0 0.0 0.00 0.00 0.00 90 1017.0
20260508060053 58 0 0.0 0.0 0.00 0.00 0.00 90 1017.1
20260508055541 58 0 0.0 0.0 0.00 0.00 0.00 90 1017.2
20260508055037 58 0 0.0 0.0 0.00 0.00 0.00 90 1017.1
20260508054554 58 0 0.0 0.0 0.00 0.00 0.00 90 1017.2
20260508054038 59 0 0.0 0.0 0.00 0.00 0.00 90 1017.3
20260508053540 59 0 0.0 0.0 0.00 0.00 0.00 89 1017.1
20260508053102 59 0 0.0 0.0 0.00 0.00 0.00 89 1017.1
20260508052542 59 0 0.0 0.0 0.00 0.00 0.00 89 1017.1
20260508052040 59 0 0.0 0.0 0.00 0.00 0.00 89 1017.0
20260508051553 59 0 0.0 0.0 0.00 0.00 0.00 89 1017.0
20260508051040 59 0 0.0 0.0 0.00 0.00 0.00 88 1017.1
20260508050539 59 0 0.0 0.0 0.00 0.00 0.00 88 1017.1
20260508050055 59 0 0.0 0.0 0.00 0.00 0.00 88 1017.1
20260508045539 59 0 0.0 0.0 0.00 0.00 0.00 88 1017.2
20260508045039 60 0 0.0 0.0 0.00 0.00 0.00 88 1017.3
20260508044546 60 0 0.0 0.0 0.00 0.00 0.00 88 1017.3
20260508044040 60 0 0.0 0.0 0.00 0.00 0.00 87 1017.1
20260508043539 60 0 0.0 0.0 0.00 0.00 0.00 87 1017.2
20260508043102 60 0 0.0 0.0 0.00 0.00 0.00 87 1017.1
20260508042539 60 0 0.0 0.0 0.00 0.00 0.00 87 1017.0
20260508042039 60 0 0.0 0.0 0.00 0.00 0.00 87 1017.0
20260508041550 60 0 0.0 0.0 0.00 0.00 0.00 87 1017.2
20260508041040 60 0 0.0 0.0 0.00 0.00 0.00 86 1017.2
20260508040539 60 0 0.0 0.0 0.00 0.00 0.00 87 1017.2
20260508040050 60 0 0.0 0.0 0.00 0.00 0.00 87 1017.1
20260508035538 60 0 0.0 0.0 0.00 0.00 0.00 87 1017.1
20260508035039 60 0 0.0 0.0 0.00 0.00 0.00 87 1017.1
20260508034547 61 0 0.0 0.0 0.00 0.00 0.00 87 1017.2
20260508034038 61 0 0.0 0.0 0.00 0.00 0.00 87 1017.0
20260508033540 61 0 0.0 0.0 0.00 0.00 0.00 87 1016.9
20260508033051 61 0 0.0 0.0 0.00 0.00 0.00 87 1016.7
20260508032539 61 0 0.0 0.0 0.00 0.00 0.00 87 1016.7
20260508032040 61 0 0.0 0.0 0.00 0.00 0.00 87 1016.8
20260508031554 61 0 0.0 0.0 0.00 0.00 0.00 87 1016.6
20260508031039 61 0 0.0 0.0 0.00 0.00 0.00 87 1016.6
20260508030539 61 0 0.0 0.0 0.00 0.00 0.00 87 1016.6
20260508030059 61 0 0.0 0.0 0.00 0.00 0.00 86 1016.5
20260508025539 61 0 0.0 0.0 0.00 0.00 0.00 86 1016.6
20260508025039 61 0 0.0 0.0 0.00 0.00 0.00 86 1016.6
20260508024556 61 0 0.0 0.0 0.00 0.00 0.00 86 1016.6
20260508024039 61 0 0.0 0.0 0.00 0.00 0.00 86 1016.6
20260508023539 61 0 0.0 0.0 0.00 0.00 0.00 85 1016.7
20260508023048 61 0 0.0 0.0 0.00 0.00 0.00 85 1016.6
20260508022539 61 0 0.0 0.0 0.00 0.00 0.00 85 1016.7
20260508022039 62 0 0.0 0.0 0.00 0.00 0.00 84 1016.8
20260508021550 62 0 0.0 0.0 0.00 0.00 0.00 84 1016.8
20260508021040 62 0 0.0 0.0 0.00 0.00 0.00 84 1016.5
20260508020538 62 0 0.0 0.0 0.00 0.00 0.00 84 1016.5
20260508020055 62 0 0.0 0.0 0.00 0.00 0.00 83 1016.5
20260508015539 63 0 0.0 0.0 0.00 0.00 0.00 83 1016.3
20260508015039 63 0 0.0 0.0 0.00 0.00 0.00 83 1016.3
20260508014551 63 0 0.0 0.0 0.00 0.00 0.00 82 1016.3
20260508014040 63 0 0.0 0.0 0.00 0.00 0.00 81 1016.5
20260508013540 63 0 0.0 0.0 0.00 0.00 0.00 81 1016.5
20260508013053 64 0 0.0 0.0 0.00 0.00 0.00 81 1016.4
20260508012539 64 0 0.0 0.0 0.00 0.00 0.00 81 1016.5
20260508012039 64 0 0.0 0.0 0.00 0.00 0.00 81 1016.3
20260508011554 64 0 0.0 0.0 0.00 0.00 0.00 80 1016.3
20260508011041 64 0 0.0 0.0 0.00 0.00 0.00 79 1016.4
20260508010539 65 0 0.0 0.0 0.00 0.00 0.00 79 1016.5
20260508010054 65 0 0.0 0.0 0.00 0.00 0.00 78 1016.5
20260508005538 65 0 0.0 0.0 0.00 0.05 0.00 78 1016.4
20260508005039 65 0 0.0 0.0 0.00 0.05 0.00 78 1016.3
20260508004555 65 0 0.0 0.0 0.00 0.05 0.00 77 1016.3
20260508004040 66 0 0.0 0.0 0.00 0.05 0.00 77 1016.5
20260508003538 66 0 0.0 0.0 0.00 0.05 0.00 77 1016.3
20260508003055 66 0 0.0 0.0 0.00 0.05 0.00 75 1016.1
20260508002539 66 0 0.0 0.0 0.00 0.05 0.00 75 1016.3
20260508002039 66 0 0.0 0.0 0.00 0.05 0.00 75 1016.5
20260508001552 66 0 0.0 0.0 0.00 0.05 0.00 74 1016.7
20260508001039 66 0 0.0 0.0 0.00 0.05 0.00 74 1016.9
20260508000541 67 0 0.0 0.0 0.00 0.05 0.00 74 1016.9
20260508000053 67 0 0.0 0.0 0.00 0.05 0.00 73 1016.8
20260507235539 67 0 0.0 0.0 0.00 0.05 0.00 73 1016.7
20260507235039 67 0 0.0 0.0 0.00 0.05 0.00 73 1016.7
20260507234555 68 0 0.0 0.0 0.00 0.05 0.00 72 1016.6
20260507234039 68 0 0.0 0.0 0.00 0.05 0.00 70 1016.4
20260507233539 68 0 0.0 0.0 0.00 0.05 0.00 69 1016.6
20260507233048 68 0 0.0 0.0 0.00 0.05 0.00 69 1016.7
20260507232542 68 0 0.0 0.0 0.00 0.05 0.00 68 1016.7
20260507232038 68 0 0.0 0.0 0.00 0.05 0.00 69 1016.6
20260507231554 68 0 0.0 0.0 0.00 0.05 0.00 69 1016.8
20260507231038 68 0 0.0 0.0 0.00 0.05 0.00 69 1017.0
20260507230542 68 0 0.0 0.0 0.00 0.05 0.00 67 1016.8
20260507230100 68 0 0.0 1.0 0.00 0.05 0.00 66 1016.8
20260507225539 68 0 0.0 1.0 0.00 0.05 0.00 65 1016.8
20260507225039 69 0 0.0 0.0 0.00 0.05 0.00 66 1016.9
20260507224547 69 0 0.0 0.0 0.00 0.05 0.00 66 1017.1
20260507224039 69 0 0.0 0.0 0.00 0.05 0.00 68 1017.0
20260507223543 69 0 0.0 1.0 0.00 0.05 0.00 66 1017.1
20260507223053 69 0 0.0 1.0 0.00 0.05 0.00 64 1017.3
20260507222541 69 0 0.0 1.0 0.00 0.05 0.00 65 1017.2
20260507222040 69 0 0.0 1.0 0.00 0.05 0.00 65 1017.2
20260507221550 69 0 0.0 0.0 0.00 0.05 0.00 64 1017.2
20260507221041 69 0 0.0 1.0 0.00 0.05 0.00 66 1017.1
20260507220539 69 0 0.0 2.0 0.00 0.05 0.00 64 1017.1
20260507220048 69 0 0.0 2.0 0.00 0.05 0.00 63 1016.9
20260507215540 69 69 0.0 2.0 0.00 0.05 0.00 62 1017.0
20260507215040 69 0 0.0 1.0 0.00 0.05 0.00 64 1017.3
20260507214545 69 0 0.0 1.0 0.00 0.05 0.00 64 1017.4
20260507214039 69 0 0.0 1.0 0.00 0.05 0.00 64 1017.2
20260507213541 69 0 0.0 0.0 0.00 0.05 0.00 62 1017.5
20260507213100 69 0 0.0 0.0 0.00 0.05 0.00 65 1017.5
20260507212539 69 0 0.0 0.0 0.00 0.05 0.00 62 1017.7
20260507212039 69 0 0.0 0.0 0.00 0.05 0.00 61 1017.7
20260507211559 69 0 0.0 1.0 0.00 0.05 0.00 61 1017.8
20260507211039 69 0 0.0 1.0 0.00 0.05 0.00 61 1018.0
20260507210539 69 0 0.0 1.0 0.00 0.05 0.00 61 1018.0
20260507210053 69 0 0.0 2.0 0.00 0.05 0.00 62 1018.1
20260507205539 69 0 0.0 2.0 0.00 0.06 0.00 62 1017.9